Flag for Germany Weather past 2 weeks in Garmisch-Partenkirchen, Bavaria, Germany

Now
43 °F

Quite cool.


Feels Like: 43 °F
Forecast: 39 / 70 °F
Wind: 2 mph from West

Location: Innsbruck-Flughafen

Current Time: May 28, 2015 at 2:25:53 AM

Latest Report: May 28, 2015 at 1:50 AM


Visibility: N/A

Pressure: 30.18 "Hg

Humidity: 93%

Dew point: 41 °F

Location of Garmisch-PartenkirchenLocation

Historic Weather in Garmisch-Partenkirchen — Graph

°F

Garmisch-Partenkirchen temperature yesterday

Maximum temperature yesterday: 57 °F (at 4:20 PM)
Minimum temperature yesterday: 46 °F (at 2:50 AM)
Average temperature yesterday: 50 °F

Past Weeks' High & Low Weather Summary

 TemperatureHumidityPressure
High86 °F (May 13, 3:20 PM)100% (May 14, 4:50 AM)30.30 "Hg (May 14, 4:50 AM)
Low39 °F (May 20, 4:50 PM)19% (May 13, 3:20 PM)29.68 "Hg (May 18, 6:50 PM)
Average54 °F81%30.04 "Hg
* Reported May 13 1:20 AM — May 28 1:20 AM, Garmisch-Partenkirchen, Weather by CustomWeather, © 2015

Note: Actual official high and low records may vary slightly from our data, if they occured in-between our weather recording intervals... More about our weather records

Advertising

Garmisch-Partenkirchen weather history for previous 24 hours

 ConditionsComfort  
Time TempWeatherWind HumidityBarometerVisibility
1:20 AM
Thu, May 28
43 °FQuite cool.2 mph87%30.18 "HgN/A
12:50 AM43 °FQuite cool.2 mph87%30.18 "HgN/A
12:20 AM45 °FPassing clouds.2 mph81%30.18 "HgN/A
11:50 PM
Wed, May 27
46 °FPassing clouds.2 mph82%30.18 "HgN/A
11:20 PM48 °FPassing clouds.2 mph76%30.18 "HgN/A
10:50 PM48 °FPassing clouds.2 mph82%30.18 "HgN/A
10:20 PM48 °FPassing clouds.1 mph76%30.18 "HgN/A
9:50 PM48 °FScattered clouds.2 mph76%30.18 "HgN/A
9:20 PM48 °FScattered clouds.1 mph76%30.18 "HgN/A
8:50 PM50 °FScattered clouds.1 mph67%30.15 "HgN/A
8:20 PM50 °FScattered clouds.5 mph71%30.15 "HgN/A
7:50 PM54 °FScattered clouds.7 mph63%30.15 "HgN/A
7:20 PM55 °FScattered clouds.6 mph55%30.15 "HgN/A
6:50 PM57 °FScattered clouds.6 mph48%30.15 "HgN/A
6:20 PM55 °FPartly sunny.5 mph51%30.15 "HgN/A
5:50 PM55 °FPartly sunny.7 mph51%30.15 "HgN/A
5:20 PM55 °FPartly sunny.6 mph51%30.18 "HgN/A
4:50 PM55 °FPartly sunny.9 mph51%30.18 "HgN/A
4:20 PM57 °FPartly sunny.8 mph55%30.18 "HgN/A
3:50 PM55 °FPartly sunny.8 mph51%30.18 "HgN/A
3:20 PM55 °FPartly sunny.7 mph59%30.18 "HgN/A
2:50 PM54 °FPartly sunny.9 mph58%30.18 "HgN/A
2:20 PM55 °FPartly sunny.6 mph55%30.18 "HgN/A
1:50 PM54 °FPartly sunny.7 mph58%30.18 "HgN/A
1:20 PM54 °FBroken clouds.7 mph58%30.18 "HgN/A
12:50 PM52 °FBroken clouds.8 mph67%30.18 "HgN/A
12:20 PM52 °FBroken clouds.8 mph67%30.21 "HgN/A
11:50 AM52 °FBroken clouds.6 mph72%30.21 "HgN/A
11:20 AM52 °FBroken clouds.5 mph72%30.18 "HgN/A
10:50 AM50 °FBroken clouds.5 mph76%30.18 "HgN/A
10:20 AM50 °FBroken clouds.3 mph76%30.18 "HgN/A
9:50 AM48 °FBroken clouds.1 mph82%30.18 "HgN/A
9:20 AM48 °FBroken clouds.2 mph87%30.18 "HgN/A
8:50 AM48 °FBroken clouds.1 mph87%30.18 "HgN/A
8:20 AM46 °FBroken clouds.1 mph93%30.18 "HgN/A
7:50 AM46 °FBroken clouds.2 mph93%30.18 "HgN/A
7:20 AM46 °FSprinkles. Broken clouds.2 mph93%30.18 "HgN/A
6:50 AM46 °FSprinkles. Broken clouds.1 mph93%30.18 "HgN/A
6:20 AM46 °FSprinkles. Partly cloudy.2 mph93%30.15 "HgN/A
5:50 AM46 °FPartly cloudy.1 mph93%30.15 "HgN/A
5:20 AM46 °FPartly cloudy.5 mph93%30.15 "HgN/A
4:50 AM46 °FSprinkles. Partly cloudy.2 mph93%30.15 "HgN/A
4:20 AM46 °FSprinkles. Passing clouds.2 mph93%30.15 "HgN/A
3:50 AM46 °FSprinkles. Partly cloudy.5 mph93%30.15 "HgN/A
3:20 AM46 °FLight rain. Partly cloudy.1 mph100%30.15 "HgN/A
2:50 AM46 °FSprinkles. Passing clouds.1 mph93%30.15 "HgN/A
2:20 AM48 °FPartly cloudy.2 mph87%30.12 "HgN/A
Weather by CustomWeather, © 2015

See weather overviewHow to use our weather pages